Location: Newark
(13.6797°N, 8.5297°E)
Time: 04:21:20
(UTC+00:00)

Altair - Pass Details

Date: 27 January 2020
Orbit: 1502 x 1682 km, 47.2° (Epoch: 18 February)

Event Time Altitude Azimuth Distance (km) Brightness Sun altitude
Rises 13:18:11 0° 333° (NNW) 4,918 10.0 49.5°
Reaches altitude 10° 13:22:23 10° 347° (NNW) 3,915 9.5 48.9°
Maximum altitude 13:29:52 23° 36° (NE) 2,959 8.8 47.7°
Drops below altitude 10° 13:37:10 10° 85° (E) 3,823 9.4 46.5°
Sets 13:41:09 0° 99° (E) 4,777 9.8 45.9°
